Weather History for West Plains, MO

Change the Weather History Date:

Monday, April 15, 2013

  Actual Average Record
Temperature  
Mean Temperature 67 °F 57 °F  
Max Temperature 77 °F 70 °F 84 °F (1967)
Min Temperature 56 °F 45 °F 25 °F (1950)
Degree Days  
Heating Degree Days 0 9  
Month to date heating degree days 162 156  
Since 1 July heating degree days 4208 4166  
Cooling Degree Days 2 1  
Month to date cooling degree days 9 10  
Year to date cooling degree days 9 14  
Growing Degree Days 15 (Base 50)    
Moisture  
Dew Point 58 °F    
Average Humidity 80    
Maximum Humidity 100    
Minimum Humidity 60    
Precipitation  
Precipitation 0.00 in 0.14 in 1.53 in (1956)
Month to date precipitation 1.92 2.06  
Year to date precipitation 12.99 11.91  
Sea Level Pressure  
Sea Level Pressure 29.82 in    
Wind  
Wind Speed 9 mph (SSE)    
Max Wind Speed 17 mph    
Max Gust Speed 23 mph    
Visibility 6 miles    
Events      
T = Trace of Precipitation, MM = Missing Value Source: NWS Daily Summary

Daily Weather History Graph

Daily Weather History Graph

Search for Another Location

Airport:

Trip Planner

Search our weather history database for the weather conditions in past years. The results will help you decide how hot, cold, wet, or windy it might be!

Date:

Astronomy

Apr. 15, 2013 Rise Set
Actual Time 6:33 AM CDT 7:42 PM CDT
Civil Twilight 6:06 AM CDT 8:09 PM CDT
Nautical Twilight 5:34 AM CDT 8:41 PM CDT
Astronomical Twilight 5:01 AM CDT 9:14 PM CDT
Moon 10:03 AM CDT (4/15) No Moon Set
Length of Visible Light 14h 02m
Length of Day
13h 09m
Waxing Crescent, 25% of the Moon is Illuminated
Apr 15
Waxing Crescent
Apr 18
First Quarter
Apr 25
Full
May 2
Last Quarter
May 9
New

Hourly Weather History & Observations

Time (CDT) Temp. Dew Point Humidity Pressure Visibility Wind Dir Wind Speed Gust Speed Precip Events Conditions
12:53 AM 60.1 °F 55.0 °F 83% 29.74 in 10.0 mi SSE 15.0 mph - N/A   Overcast
1:53 AM 59.0 °F 55.0 °F 87% 29.75 in 10.0 mi South 9.2 mph - N/A   Overcast
2:17 AM 59.0 °F 55.4 °F 88% 29.77 in 10.0 mi SSE 8.1 mph - N/A   Overcast
2:53 AM 59.0 °F 54.0 °F 83% 29.75 in 10.0 mi SSE 8.1 mph - N/A   Overcast
3:53 AM 57.9 °F 54.0 °F 87% 29.76 in 10.0 mi SE 5.8 mph - N/A   Overcast
4:53 AM 57.9 °F 54.0 °F 87% 29.78 in 10.0 mi SSE 8.1 mph - N/A   Overcast
5:35 AM 57.2 °F 55.4 °F 94% 29.82 in 10.0 mi SE 4.6 mph - N/A   Overcast
5:53 AM 57.9 °F 54.0 °F 87% 29.79 in 10.0 mi SE 5.8 mph - N/A   Overcast
6:29 AM 57.2 °F 55.4 °F 94% 29.81 in 10.0 mi SE 4.6 mph - N/A   Overcast
6:53 AM 57.0 °F 55.0 °F 93% 29.81 in 3.0 mi SE 5.8 mph - N/A   Overcast
7:01 AM 55.4 °F 55.4 °F 100% 29.83 in 2.0 mi SE 5.8 mph - N/A   Overcast
7:10 AM 55.4 °F 55.4 °F 100% 29.83 in 1.5 mi SE 6.9 mph - N/A   Overcast
7:22 AM 55.4 °F 55.4 °F 100% 29.84 in 0.8 mi SSE 9.2 mph - N/A   Overcast
7:50 AM 55.4 °F 55.4 °F 100% 29.85 in 1.0 mi SSE 6.9 mph - N/A   Overcast
7:53 AM 55.9 °F 55.9 °F 100% 29.83 in 1.0 mi SSE 8.1 mph - N/A   Overcast
8:27 AM 57.2 °F 55.4 °F 94% 29.85 in 1.2 mi SE 8.1 mph - N/A   Overcast
8:53 AM 57.0 °F 55.9 °F 96% 29.84 in 1.2 mi SSE 8.1 mph - N/A   Overcast
9:11 AM 57.2 °F 57.2 °F 100% 29.86 in 1.0 mi SSE 6.9 mph - N/A   Overcast
9:28 AM 57.2 °F 57.2 °F 100% 29.85 in 1.2 mi SE 9.2 mph - N/A   Overcast
9:53 AM 57.9 °F 57.0 °F 97% 29.83 in 1.2 mi SSE 10.4 mph - N/A   Overcast
10:34 AM 57.2 °F 57.2 °F 100% 29.85 in 1.0 mi SSE 6.9 mph - N/A   Overcast
10:48 AM 57.2 °F 57.2 °F 100% 29.86 in 0.8 mi SSE 10.4 mph - N/A   Overcast
10:53 AM 57.9 °F 57.9 °F 100% 29.84 in 0.8 mi SSE 13.8 mph - N/A   Overcast
11:24 AM 57.2 °F 57.2 °F 100% 29.85 in 1.0 mi SSE 11.5 mph - N/A   Overcast
11:32 AM 59.0 °F 57.2 °F 94% 29.85 in 1.8 mi SSE 9.2 mph - N/A   Overcast
11:53 AM 59.0 °F 57.9 °F 96% 29.83 in 1.5 mi SSE 10.4 mph 18.4 mph N/A   Overcast
12:02 PM 60.8 °F 57.2 °F 88% 29.85 in 3.0 mi SSE 11.5 mph - N/A   Overcast
12:53 PM 62.1 °F 59.0 °F 90% 29.83 in 7.0 mi South 6.9 mph 16.1 mph N/A   Overcast
1:00 PM 62.6 °F 59.0 °F 88% 29.85 in 8.0 mi SSE 6.9 mph - N/A   Overcast
1:15 PM 64.4 °F 59.0 °F 83% 29.84 in 10.0 mi SSE 9.2 mph - N/A   Overcast
1:29 PM 66.2 °F 60.8 °F 83% 29.84 in 10.0 mi SSE 9.2 mph - N/A   Mostly Cloudy
1:39 PM 66.2 °F 60.8 °F 83% 29.84 in 10.0 mi SSE 11.5 mph 19.6 mph N/A   Mostly Cloudy
1:53 PM 68.0 °F 60.1 °F 76% 29.81 in 10.0 mi South 11.5 mph 21.9 mph N/A   Overcast
2:53 PM 72.0 °F 59.0 °F 64% 29.79 in 10.0 mi South 10.4 mph 19.6 mph N/A   Overcast
3:04 PM 73.4 °F 60.8 °F 65% 29.81 in 10.0 mi South 15.0 mph 21.9 mph N/A   Overcast
3:53 PM 75.0 °F 60.1 °F 60% 29.76 in 10.0 mi South 10.4 mph - N/A   Mostly Cloudy
4:53 PM 75.0 °F 60.1 °F 60% 29.76 in 10.0 mi SSW 12.7 mph 23.0 mph N/A   Clear
5:53 PM 72.0 °F 60.1 °F 66% 29.77 in 10.0 mi South 10.4 mph - N/A   Clear
6:53 PM 72.0 °F 60.1 °F 66% 29.78 in 10.0 mi South 10.4 mph - N/A   Clear
7:53 PM 69.1 °F 60.1 °F 73% 29.80 in 10.0 mi South 9.2 mph - N/A   Clear
8:53 PM 66.9 °F 59.0 °F 76% 29.83 in 10.0 mi SSE 6.9 mph - N/A   Clear
9:53 PM 66.9 °F 59.0 °F 76% 29.86 in 10.0 mi South 6.9 mph - N/A   Clear
10:53 PM 64.9 °F 60.1 °F 84% 29.86 in 10.0 mi SSE 4.6 mph - N/A   Partly Cloudy
11:11 PM 64.4 °F 60.8 °F 88% 29.88 in 10.0 mi SSE 5.8 mph - N/A   Mostly Cloudy
11:35 PM 64.4 °F 60.8 °F 88% 29.87 in 10.0 mi SSE 6.9 mph - N/A   Partly Cloudy
11:53 PM 64.9 °F 62.1 °F 90% 29.85 in 10.0 mi SSE 6.9 mph - N/A   Clear